Regional Weather Roundup
Issued by NWS Upton, NY

Current Version | Previous Version | Text Only | Print | Product List | Glossary On
Versions: 1 2 3 4 5 6 7 8 9 10 11 12 13 14 15 16 17 18 19 20 21 22 23 24 25 26 27 28 29 30 31 32 33 34
000
ASUS41 KOKX 090008
RWROKX

REGIONAL WEATHER ROUNDUP
NATIONAL WEATHER SERVICE NEW YORK NY
700 PM EST THU DEC 08 2016

NOTE: "FAIR" INDICATES FEW OR NO CLOUDS BELOW 12,000 FEET WITH NO
SIGNIFICANT WEATHER AND/OR OBSTRUCTIONS TO VISIBILITY.

NYZ071-072-176-178-NJZ106-104-090100-
NEW YORK CITY METRO AREA

CITY           SKY/WX    TMP DP  RH WIND       PRES   REMARKS
Central Park     N/A     41  19  42 MISG        N/A
Wall St Helipt CLEAR     41  23  48 W12G21    29.97R
Bronx Bot Gard NOT AVBL
LaGuardia APRT PTCLDY    42  19  39 W13G22    29.95R
Kennedy INTL   PTCLDY    42  19  39 W14       29.97R
Breezy Point     N/A     39 N/A N/A W12G20      N/A  WCI  32
Newark/Liberty PTCLDY    39  17  41 W15       29.96R WCI  31
Teterboro      PTCLDY    39  18  42 W8        29.95R WCI  33
$$

NYZ177-179-078>081-090100-
LONG ISLAND NEW YORK

CITY           SKY/WX    TMP DP  RH WIND       PRES   REMARKS
Jones Beach      N/A     39 N/A N/A W15G21      N/A  WCI  31
Matinecock PT  NOT AVBL
Farmingdale    MOCLDY    40  19  43 W14       29.94R WCI  32
MacArthur/ISP  CLOUDY    38  20  48 W7        29.92R WCI  33
Shirley        CLOUDY    37  21  52 W6        29.92R WCI  32
Westhampton    PTCLDY    34  20  56 W7        29.93R WCI  28
Southampton    NOT AVBL
Bridgehampton  NOT AVBL
East Hampton     N/A     37  24  59 W5        29.89R WCI  33
Montauk          N/A     43  26  51 W13G24    29.89R
$$

NYZ052-065-067-090100-
HUDSON VALLEY

CITY           SKY/WX    TMP DP  RH WIND       PRES   REMARKS
White Plains   CLEAR     37  18  46 W7        29.90R WCI  32
Newburgh       PTCLDY    37  21  52 W12       29.92R WCI  30
Montgomery     CLEAR     37  19  48 NW10G18   29.91R WCI  30
Poughkeepsie   CLOUDY    35  20  54 SW5       29.92R WCI  31
Albany         PTCLDY    32  21  64 W10       29.91R WCI  24
$$

NJZ001-105-106-008-010-013-015-019>022-104-090100-
NEW JERSEY

CITY           SKY/WX    TMP DP  RH WIND       PRES   REMARKS
Newark/Liberty PTCLDY    39  17  41 W15       29.96R WCI  31
Teterboro      PTCLDY    39  18  42 W8        29.95R WCI  33
Caldwell       CLEAR     38  18  44 VRB7      29.96R WCI  33
Somerville     CLEAR     37  17  44 VRB7G20   29.98R WCI  32
Linden           N/A     38  19  46 W12       29.97R WCI  30
Sussex         CLEAR     35  19  52 VRB6      29.95R WCI  30
Andover          N/A     34  18  52 CALM      29.96R
Trenton        CLEAR     37  17  44 NW12      30.00R WCI  29
Millville      PTCLDY    40  23  50 W12       30.03R WCI  33
Atlantic City  CLOUDY    39  21  48 W6        30.01R WCI  35
Wrightstown    PTCLDY    37  20  49 NW14      29.98R WCI  29
Toms River     PTCLDY    38  20  48 W10       30.00R WCI  31
Belmar         PTCLDY    37  19  48 W10       29.99R WCI  30
$$

PAZ047>061-062-071-090100-
EASTERN PENNSYLVANIA

CITY           SKY/WX    TMP DP  RH WIND       PRES   REMARKS
Philadelphia   MOCLDY    40  17  39 NW24G31   30.04R WCI  29
Allentown      CLEAR     35  16  45 W14       30.02R WCI  26
Scranton       CLOUDY    34  15  46 W12       29.96R WCI  25
$$

CTZ002-004>006-009-010-012-RIZ004-006-007-MAZ004-011-015-090100-
SOUTHERN NEW ENGLAND
 IN CT

CITY           SKY/WX    TMP DP  RH WIND       PRES   REMARKS
Bradley INTL   PTCLDY    34  24  67 NW5       29.88R WCI  30
Hartford       CLOUDY    39  26  59 NW5       29.89R
Danbury        CLEAR     35  18  49 W7        29.90R WCI  29
Wtrbury/Oxford PTCLDY    36  16  44 NW5       29.89R WCI  32
Bridgeport     NOT AVBL
Meriden        PTCLDY    37  19  48 CALM      29.89R
New Haven      CLEAR     40  23  50 W8        29.90R WCI  34
Chester          N/A     36  21  55 W6        29.87S WCI  31
Groton         CLEAR     42  25  50 W12       29.88R
Wilimantic     PTCLDY    39  27  62 NW6       29.87R WCI  35

 IN RI

CITY           SKY/WX    TMP DP  RH WIND       PRES   REMARKS
Providence     PTCLDY    37  25  61 W7        29.85R WCI  32
Block Island   CLOUDY    42  25  50 W17G24    29.87R
Westerly       MOCLDY    40  22  48 VRB5      29.88R
 IN MA

CITY           SKY/WX    TMP DP  RH WIND       PRES   REMARKS
Boston         PTCLDY    38  27  64 W10G18    29.83R WCI  31
Worcester      CLEAR     31  23  72 W10       29.80S WCI  22
Westfield      MOCLDY    36  24  62 VRB7      29.86R WCI  30
Provincetown   PTCLDY    41  30  65 W17G23    29.82R
Nantucket      CLOUDY    42  26  53 W13G21    29.82R
$$

ANZ330-335-338-340-345-350-353-355-090100-
COASTAL MARINE OBSERVATIONS


STATION/POSITION TIME  SKY/WX   TEMP    WIND        PRES    VSBY  WAVE
                                AIR SEA DIR/SP/G                  HT/PER
                 (UTC)          (F)     (DEG/KT/KT) (MB)    (MI)  (FT/S)
NY HARB ENTRANCE 2350            43 52  280/ 21/ 27 1014.0          4/ 4
20 S FIRE ISLAND 2350            44 53  290/ 25/ 31 1013.1          5/ 5
GREAT SOUTH BAY  2330            41 43                N/A
23 SSW MONTAUK P 2350            44 54  270/ 21/ 27 1012.3          6/ 6
15 E BARNEGAT LI 2330               53                N/A           4/ 4
HUDSON CANYON    2250            47 55              1012.8          5/ 6
KINGS POINT      2342            41 47              1013.7
EXECUTION ROCKS  2345            42     270/ 14/ 19   N/A
CENTRAL LI SOUND 2345            44 50  270/ 21/ 25   N/A           4/ 5
EASTERN LI SOUND NOT AVBL
ROBBINS REEF     2342            40     280/ 16/ 20 1014.5
$$


>>>>>>>>>>>>>>>>>>>>>>>>>>>> KEY <<<<<<<<<<<<<<<<<<<<<<<<<<<
>                                                          <
>     SKY/WX - Sky Condition/Present Weather               <
>     TMP    - Temperature in Fahrenheit                   <
>     DP     - Dew Point in Fahrenheit                     <
>     RH     - Relative Humidity in Percent                <
>     WIND   - Direction (from) and Speed in MPH           <
>     PRES   - Mean Sea Level Pressure (inches of Hg)      <
>     WCI    - Wind Chill Index                            <
>     VSB    - VISIBILITY IN MILES                         <
>     HX     - HEAT INDEX                                  <
>     TC     - TEMPERATURE IN CELSIUS                      <
>     VRB    - VARIABLE WIND DIRECTION                     <
>                                                          <
>>>>>>>>>>>>>>>>>>>>>>>>>>>> KEY <<<<<<<<<<<<<<<<<<<<<<<<<<<




USA.gov is the U.S. government's official web portal to all federal, state and local government web resources and services.